Lid_Strength_Index
12 13 14 13 13 14 15 16 16 15 14 15 15 15 13 11 14 14 15 16 16 16 15 16 16 16 17 16 16 16 16 16 15 16 16 16 17 16 16 15 15 16 16 15
13 14 13 13 14 14 16 16 16 15 15 16 16 16 13 12 12 11 13 15 16 16 17 17 17 17 17 17 17 17 16 16 16 16 16 17 17 17 16 16 16 16 16 16
15 14 13 13 15 15 16 17 17 16 16 16 18 18 17 15 14 13 13 13 15 15 17 17 17 17 17 17 17 17 17 17 16 16 17 17 17 17 17 17 17 17 16 16
14 14 13 15 15 15 16 15 16 17 18 19 17 20 18 15 15 14 14 15 14 15 16 17 17 18 17 17 17 17 17 17 17 17 18 19 19 19 18 18 17 17 17 17
14 15 15 15 14 14 15 16 16 17 18 20 20 21 19 19 17 14 13 14 15 15 16 17 17 17 17 17 17 17 17 18 17 17 18 19 19 19 18 19 19 18 18 17
14 14 14 14 15 15 15 17 18 20 20 23 18 19 20 19 17 15 15 14 14 15 16 16 16 16 17 17 17 17 18 18 18 18 19 19 20 20 20 20 20 19 19 18
16 16 15 14 15 15 16 16 19 21 23 21 22 23 18 17 16 14 14 14 15 15 17 17 17 18 18 18 18 18 18 19 19 19 20 20 20 21 21 21 21 21 20 20
16 16 15 15 13 15 17 15 18 23 24 20 24 23 18 17 14 16 16 16 17 17 18 17 18 18 17 18 18 18 19 20 20 20 20 21 21 21 21 21 21 22 21 20
16 17 17 16 16 16 18 19 17 21 29 24 20 19 17 16 16 17 17 18 17 17 18 18 18 17 17 18 18 18 20 20 21 21 21 22 22 22 22 22 22 22 21 21
14 16 17 18 18 19 18 16 19 19 22 26 21 19 18 17 16 15 16 16 16 17 18 19 18 18 17 18 18 19 20 21 21 21 22 22 23 23 23 23 23 22 22 21
13 13 17 17 18 18 18 18 18 17 19 22 24 19 18 16 15 15 14 15 15 16 19 19 18 18 18 18 19 20 21 21 22 22 23 23 23 23 23 23 23 23 22 22
13 14 16 18 19 18 18 17 16 19 21 21 21 19 16 15 15 15 14 15 15 17 18 19 19 18 19 19 20 21 22 22 22 23 23 24 24 24 24 24 23 23 23 23
14 16 20 18 19 19 19 19 17 19 20 19 21 19 15 16 16 16 16 16 16 17 19 20 19 19 19 20 20 22 22 22 23 24 24 25 25 25 25 24 24 23 23 24
11 16 16 18 17 18 20 20 18 18 19 19 18 17 15 13 14 14 15 17 16 18 19 20 19 19 19 20 21 22 23 23 24 25 25 25 25 25 25 25 24 24 24 25
14 16 15 14 14 17 19 18 18 19 18 19 17 17 15 13 12 12 12 11 14 18 20 20 20 19 20 21 22 23 24 25 25 26 26 26 26 25 25 25 25 25 25 25
15 16 16 16 15 17 17 17 16 17 17 18 17 17 13 11 12 12 11 12 12 13 18 19 19 19 20 20 23 23 25 25 25 26 26 26 26 26 26 26 26 26 26 26
16 16 17 18 16 18 20 17 15 15 14 15 17 15 13 13 13 13 12 11 12 13 17 19 19 19 20 20 22 25 25 25 26 25 26 27 27 28 27 27 27 27 28 27
14 16 15 18 17 22 16 13 14 15 15 14 14 13 12 12 11 11 13 12 12 14 17 18 19 19 20 22 24 25 25 25 25 26 28 28 28 29 28 29 28 28 27 27
12 13 16 18 18 16 15 15 16 16 15 13 13 13 12 12 14 14 13 13 12 12 16 18 19 20 23 24 25 25 25 25 26 27 28 28 29 30 30 32 30 28 28 28
12 12 15 16 19 20 15 13 13 15 17 12 12 12 12 14 16 13 12 14 15 17 18 19 21 23 24 25 24 25 26 26 28 28 28 29 29 32 32 30 30 28 29 27
17 14 16 16 18 16 13 14 14 18 16 11 11 11 12 14 12 11 18 19 19 19 21 22 23 23 25 25 24 25 26 27 27 28 29 30 30 32 32 31 30 30 30 27
14 16 17 15 18 19 11 14 15 12 10 10 10 11 13 12 11 15 18 20 21 23 22 23 24 25 25 24 24 26 26 28 29 30 30 31 32 32 30 33 31 30 29 29
15 12 13 13 14 12 10 10 9 9 9 10 10 11 11 12 13 17 19 21 22 22 23 23 25 26 26 24 24 26 28 28 30 32 33 32 32 31 31 33 30 30 28 27
10 9 11 12 10 11 11 9 8 8 9 8 9 10 12 11 13 17 19 21 22 23 24 24 26 26 27 26 25 27 28 29 33 33 31 29 30 30 29 28 27 29 26 25
11 11 11 12 10 9 8 8 8 9 9 12 11 10 12 12 14 16 19 21 21 23 23 25 25 26 28 28 30 29 30 31 32 31 30 30 29 31 28 26 27 25 23 21
10 11 12 13 8 9 8 7 7 8 8 8 8 9 13 11 11 16 18 20 21 23 24 24 25 27 29 30 31 32 32 31 30 30 30 30 30 30 27 27 27 23 20 19